Stations météo

réclame
Mon MeteoGroup
Skillinge, Suède (2625): Température de l'air & dewpoint: 14.01.2020 08:00:00 - 20.01.2020 08:00:00 (CET)Skillinge, Suède (2625): Vitesse du vent & gusts: 14.01.2020 08:00:00 - 20.01.2020 08:00:00 (CET)Skillinge, Suède (2625): Direction du vent: 14.01.2020 08:00:00 - 20.01.2020 08:00:00 (CET)Skillinge, Suède (2625): reduced air pressure: 14.01.2020 08:00:00 - 20.01.2020 08:00:00 (CET)Skillinge, Suède (2625): visibility: 14.01.2020 08:00:00 - 20.01.2020 08:00:00 (CET)Skillinge, Suède (2625): Quantités de précipitations: 14.01.2020 08:00:00 - 20.01.2020 08:00:00 (CET)
Date & Time tt [°C] td [°C] ff [km/h] ff [knt] fx [km/h] fx [knt] dd ppp [hPa] vv [km] rr [mm]
20.01.2020 08:00:00 1,8 1,6 11 6 18 10 WSW 1040,4 6 0,0
20.01.2020 07:00:00 1,4 1,0 12 6 22 12 W 1040,0 1,3 0,0
20.01.2020 06:00:00 0,7 0,1 14 7 18 10 W 1040,0 7 0,0
20.01.2020 05:00:00 0,1 -0,9 8 5 16 9 W 1039,9 12 0,0
20.01.2020 04:00:00 0,9 0,0 10 5 15 8 W 1039,8 13 0,0
20.01.2020 03:00:00 1,5 0,5 10 5 19 10 W 1040,0 15 0,0
20.01.2020 02:00:00 1,7 0,8 14 7 18 10 W 1039,8 15 0,0
20.01.2020 01:00:00 1,3 0,7 10 6 16 9 W 1039,1 15 0,0
20.01.2020 00:00:00 0,5 -0,4 10 5 15 8 WNW 1039,0 13 0,0
19.01.2020 23:00:00 1,6 0,7 11 6 19 11 WNW 1038,6 15 0,0
19.01.2020 22:00:00 2,0 1,3 13 7 18 10 W 1037,7 14 0,0
19.01.2020 21:00:00 1,8 1,1 12 6 19 10 W 1037,0 13 0,0
19.01.2020 20:00:00 2,0 1,4 13 7 17 9 W 1036,7 14 0,0
19.01.2020 19:00:00 1,8 1,2 11 6 13 7 W 1035,9 13 0,0
19.01.2020 18:00:00 1,5 0,8 7 4 12 7 W 1035,1 14 0,0
19.01.2020 17:00:00 2,4 1,4 8 4 10 6 W 1034,2 15 0,0
19.01.2020 16:00:00 3,2 1,7 8 4 14 8 W 1033,1 17 0,0
19.01.2020 15:00:00 5,4 2,7 9 5 19 10 W 1032,1 35 0,0
19.01.2020 14:00:00 5,6 2,6 14 8 26 14 W 1031,3 34 0,0
19.01.2020 13:00:00 5,3 2,5 12 6 22 12 W 1030,8 25 0,0
19.01.2020 12:00:00 5,2 2,5 13 7 21 11 WNW 1030,5 28 0,0
19.01.2020 11:00:00 5,1 3,0 8 4 18 10 W 1029,3 23 0,0
19.01.2020 10:00:00 4,5 3,1 8 5 18 10 W 1028,6 17 0,0
19.01.2020 09:00:00 3,2 2,6 5 3 11 6 WSW 1027,6 12 0,0
19.01.2020 08:00:00 2,0 1,6 5 3 11 6 W 1026,3 9 0,0
19.01.2020 07:00:00 1,3 0,9 6 4 10 6 WSW 1025,2 8 0,0
19.01.2020 06:00:00 1,6 1,0 4 2 6 3 WSW 1024,4 8 0,0
19.01.2020 05:00:00 1,7 1,1 3 2 10 5 WSW 1023,5 8 0,0
19.01.2020 04:00:00 2,3 1,6 10 5 11 6 WSW 1022,6 10 0,0
19.01.2020 03:00:00 2,6 1,7 5 3 15 8 W 1021,8 11 0,0
19.01.2020 02:00:00 2,9 2,0 9 5 17 9 W 1021,2 11 0,0
19.01.2020 01:00:00 4,0 2,8 12 6 26 14 WSW 1020,3 14 0,0
19.01.2020 00:00:00 4,9 3,4 16 9 32 18 W 1019,6 16 0,0
18.01.2020 23:00:00 5,3 4,0 19 11 41 22 WSW 1018,9 19 0,0
18.01.2020 22:00:00 5,3 3,8 27 15 41 22 WSW 1018,3 32 0,0
18.01.2020 21:00:00 5,4 3,7 27 14 44 24 WSW 1018,1 34 0,0
18.01.2020 20:00:00 5,5 3,7 32 18 48 26 WSW 1017,6 30 0,0
18.01.2020 19:00:00 5,4 3,6 30 16 55 30 WSW 1017,1 23 0,0
18.01.2020 18:00:00 5,3 3,6 35 19 57 31 WSW 1016,3 19 0,0
18.01.2020 17:00:00 5,2 3,5 33 18 53 28 SW 1016,1 14 0,0
18.01.2020 16:00:00 5,2 3,2 32 18 52 28 WSW 1015,6 16 0,0
18.01.2020 15:00:00 5,4 3,1 34 19 51 27 SW 1015,7 22 0,0
18.01.2020 14:00:00 5,6 3,1 33 18 47 26 SW 1015,5 21 0,0
18.01.2020 13:00:00 5,7 3,0 30 16 51 28 WSW 1015,3 24 0,0
18.01.2020 12:00:00 5,8 3,3 33 18 53 28 WSW 1015,2 24 0,0
18.01.2020 11:00:00 6,1 3,3 35 19 57 31 WSW 1014,8 30 0,0
18.01.2020 10:00:00 5,9 3,7 35 19 50 27 WSW 1014,4 36 0,0
18.01.2020 09:00:00 5,9 3,2 33 18 50 27 WSW 1014,1 50 0,0
18.01.2020 08:00:00 6,0 3,8 23 12 40 21 SW 1013,6 30 0,0
18.01.2020 07:00:00 6,2 4,4 23 12 39 21 WSW 1013,1 17 0,0
18.01.2020 06:00:00 6,1 5,2 26 14 39 21 WSW 1012,6 10 0,0
18.01.2020 05:00:00 6,5 5,9 23 12 35 19 WSW 1012,1 7 0,1
18.01.2020 04:00:00 6,0 5,6 17 9 29 15 SW 1011,8 3,5 0,4
18.01.2020 03:00:00 5,6 5,0 18 10 27 15 SW 1011,6 3,7 0,2
18.01.2020 02:00:00 5,7 4,2 17 9 35 19 SW 1011,3 9 0,0
18.01.2020 01:00:00 5,5 4,3 22 12 34 18 SSW 1011,3 7 0,0
18.01.2020 00:00:00 5,2 4,3 25 14 33 18 SSW 1011,5 4,7 0,0
17.01.2020 23:00:00 5,3 4,3 24 13 34 18 S 1011,8 5 0,0
17.01.2020 22:00:00 5,4 4,2 23 12 30 16 S 1012,4 7 0,0
17.01.2020 21:00:00 5,7 4,2 22 12 28 15 SSW 1013,1 11 0,0
17.01.2020 20:00:00 6,1 4,4 22 12 32 17 S 1013,8 15 0,0
17.01.2020 19:00:00 6,1 4,6 20 11 32 18 S 1014,2 13 0,0
17.01.2020 18:00:00 6,2 4,7 22 12 31 17 S 1014,8 13 0,0
17.01.2020 17:00:00 6,1 4,6 19 10 30 16 S 1015,3 12 0,0
17.01.2020 16:00:00 6,2 4,7 19 10 30 16 S 1015,8 12 0,0
17.01.2020 15:00:00 6,3 4,6 23 12 34 18 S 1016,5 11 0,0
17.01.2020 14:00:00 6,3 4,8 24 13 36 20 S 1017,3 9 0,0
17.01.2020 13:00:00 6,4 4,7 27 15 35 19 S 1018,2 8 0,0
17.01.2020 12:00:00 6,5 5,0 22 12 32 17 S 1019,0 9 0,0
17.01.2020 11:00:00 6,2 4,8 23 12 31 17 S 1020,0 9 0,0
17.01.2020 10:00:00 5,8 4,6 21 11 28 15 S 1020,4 9 0,0
17.01.2020 09:00:00 5,4 4,4 23 13 37 20 SSW 1020,9 8 0,0
17.01.2020 08:00:00 5,4 4,5 30 16 39 21 S 1020,9 8 0,0
17.01.2020 07:00:00 5,5 4,5 29 16 37 20 S 1021,3 8 0,0
17.01.2020 06:00:00 5,7 4,7 27 14 34 18 S 1021,6 8 0,0
17.01.2020 05:00:00 5,7 4,5 26 14 32 18 SSW 1022,1 9 0,0
17.01.2020 04:00:00 5,8 4,6 25 13 31 17 SSW 1022,8 12 0,0
17.01.2020 03:00:00 5,7 4,5 22 12 29 16 SSW 1023,5 16 0,0
17.01.2020 02:00:00 5,6 4,4 19 10 26 14 SSW 1024,2 26 0,0
17.01.2020 01:00:00 5,2 4,3 13 7 22 12 SSW 1024,7 25 0,0
17.01.2020 00:00:00 5,3 4,6 16 9 24 13 SSW 1025,7 23 0,0
16.01.2020 23:00:00 4,9 4,3 10 6 21 11 SSW 1025,7 15 0,0
16.01.2020 22:00:00 5,3 4,7 16 9 20 11 SSW 1026,3 13 0,0
16.01.2020 21:00:00 4,9 4,2 9 5 23 12 SSW 1026,3 6 0,0
16.01.2020 20:00:00 5,8 4,4 21 11 36 20 WSW 1026,2 10 0,0
16.01.2020 19:00:00 5,2 4,0 20 11 31 17 WSW 1026,1 11 0,0
16.01.2020 18:00:00 5,6 4,1 21 12 32 17 WSW 1025,6 12 0,0
16.01.2020 17:00:00 5,8 4,0 20 11 36 19 WSW 1025,7 16 0,0
16.01.2020 16:00:00 5,9 4,7 18 10 32 18 WSW 1025,4 11 0,0
16.01.2020 15:00:00 6,8 4,5 22 12 33 18 WSW 1024,7 19 0,0
16.01.2020 14:00:00 7,2 5,0 19 10 36 19 WSW 1024,2 19 0,0
16.01.2020 13:00:00 7,1 5,1 23 12 44 24 WSW 1023,6 16 0,0
16.01.2020 12:00:00 7,3 5,3 29 15 46 25 WSW 1023,5 17 0,0
16.01.2020 11:00:00 6,5 4,7 32 18 53 29 WSW 1022,8 20 0,0
16.01.2020 10:00:00 6,3 4,8 30 16 46 25 WSW 1021,8 18 0,0
16.01.2020 09:00:00 5,8 4,6 27 15 43 23 WSW 1021,2 18 0,0
16.01.2020 08:00:00 5,8 4,3 29 16 43 23 WSW 1020,5 19 0,0
16.01.2020 07:00:00 6,0 4,2 28 15 40 22 WSW 1019,7 22 0,0
16.01.2020 06:00:00 5,2 3,9 19 11 32 17 W 1018,8 19 0,0
16.01.2020 05:00:00 5,1 3,8 17 9 31 17 W 1018,2 20 0,0
16.01.2020 04:00:00 5,0 3,6 17 9 32 18 W 1017,1 33 0,0
16.01.2020 03:00:00 5,5 4,3 19 10 32 17 W 1016,2 40 0,0
16.01.2020 02:00:00 5,2 3,9 19 11 30 16 WSW 1015,2 50 0,0
16.01.2020 01:00:00 5,4 3,9 12 7 29 16 WSW 1014,2 50 0,0
16.01.2020 00:00:00 6,3 4,6 17 9 46 25 W 1012,4 50 0,0
15.01.2020 23:00:00 8,2 6,3 33 18 52 28 WSW 1010,2 34 0,1
15.01.2020 22:00:00 8,3 6,0 27 14 41 22 SW 1009,1 17 0,8
15.01.2020 21:00:00 8,4 6,0 26 14 53 29 WSW 1008,6 19 0,1
15.01.2020 20:00:00 9,8 5,8 41 22 53 28 SW 1007,7 45 0,0
15.01.2020 19:00:00 8,8 5,9 39 21 49 26 SSW 1007,4 42 0,0
15.01.2020 18:00:00 8,1 5,6 35 19 44 24 SW 1007,3 37 0,0
15.01.2020 17:00:00 8,7 5,8 33 18 47 26 SSW 1007,4 48 0,0
15.01.2020 16:00:00 8,2 5,7 34 19 53 28 SSW 1007,1 41 0,0
15.01.2020 15:00:00 10,7 5,9 35 19 61 33 SW 1007,0 44 0,0
15.01.2020 14:00:00 10,8 6,0 39 21 61 33 SW 1006,7 50 0,0
15.01.2020 13:00:00 10,8 6,2 43 23 68 37 SW 1006,5 50 0,0
15.01.2020 12:00:00 10,6 6,4 46 25 67 36 SW 1006,1 50 0,0
15.01.2020 11:00:00 7,9 6,2 39 21 49 26 SSW 1006,0 32 0,2
15.01.2020 10:00:00 7,7 6,1 39 21 54 29 SSW 1005,7 14 0,2
15.01.2020 09:00:00 8,1 6,2 40 22 57 31 SSW 1005,0 27 0,4
15.01.2020 08:00:00 7,4 6,3 37 20 53 29 SSW 1004,5 6 0,4
15.01.2020 07:00:00 7,2 6,1 38 20 52 28 SSW 1003,8 25 0,0
15.01.2020 06:00:00 7,5 6,3 41 22 55 30 SSW 1003,5 22 0,3
15.01.2020 05:00:00 7,7 5,7 41 22 62 34 SSW 1003,1 37 0,0
15.01.2020 04:00:00 7,7 6,0 45 24 63 34 SSW 1002,8 28 0,0
15.01.2020 03:00:00 7,6 5,7 44 24 56 30 SW 1002,9 29 0,0
15.01.2020 02:00:00 7,2 5,5 41 22 51 27 SW 1003,1 27 0,1
15.01.2020 01:00:00 7,2 5,3 37 20 47 25 SSW 1003,2 18 0,0
15.01.2020 00:00:00 7,3 5,4 33 18 41 22 SSW 1003,4 42 0,0
14.01.2020 23:00:00 7,2 5,7 32 18 41 22 SSW 1003,5 44 0,0
14.01.2020 22:00:00 7,0 5,8 25 13 37 20 SSW 1003,9 37 0,0
14.01.2020 21:00:00 7,1 6,2 26 14 35 19 SSW 1004,4 37 0,0
14.01.2020 20:00:00 6,2 5,6 16 9 28 15 SSW 1005,2 16 0,0
14.01.2020 19:00:00 6,7 5,3 15 8 27 15 SW 1005,3 21 0,0
14.01.2020 18:00:00 5,8 4,8 18 10 27 15 WSW 1005,3 24 0,0
14.01.2020 17:00:00 6,0 5,3 16 8 35 19 SW 1005,0 28 0,0
14.01.2020 16:00:00 6,7 5,8 23 13 45 25 SW 1004,0 32 0,0
14.01.2020 15:00:00 7,2 6,1 32 18 53 29 SW 1003,4 17 0,0
14.01.2020 14:00:00 6,7 6,0 42 23 58 31 SSW 1002,6 12 1,5
14.01.2020 13:00:00 6,1 5,5 40 22 58 31 SSW 1002,5 5 1,6
14.01.2020 12:00:00 5,8 5,2 37 20 58 31 SSW 1002,9 5 1,0
14.01.2020 11:00:00 5,5 4,8 44 24 66 36 SSW 1003,3 4,1 0,9
14.01.2020 10:00:00 5,3 4,2 44 24 61 33 SSW 1003,8 3,7 0,6
14.01.2020 09:00:00 5,4 4,0 42 23 60 32 S 1004,4 12 0,1
14.01.2020 08:00:00 5,2 4,0 42 23 59 32 S 1005,4 9 0,0

tt = Température de l'air
td = dewpoint
ff = Vitesse du vent
fx = gusts
dd = Direction du vent
ppp = reduced air pressure
vv = visibility
rr = Quantités de précipitations

stations d'obs. à proximité